#timestamp,LO_Frequency,Hit 
1500217215.8,286046981.6,N
1500217235.6,286046977.8,N
1500217255.4,286046972.7,N
1500217275.3,286046970.7,N
1500217295.1,286046962.9,N
1500217315.8,286046961.1,N
1500217335.7,286046956.9,N
1500217355.5,286046951.7,N
1500217375.3,286046951.8,N
1500217395.2,286046954.0,N
1500217415.9,286046952.7,N
1500217435.7,286046951.3,N
1500217455.6,286046949.2,N
1500217475.4,286046949.8,N
1500217495.2,286046946.4,N
1500217515.1,286046943.4,N
1500217516.0,286046943.4,N
1500217535.8,286046943.5,N
1500217555.6,286046943.6,N
1500217575.5,286046940.9,N
1500217595.3,286046939.6,N
1500217615.1,286046939.7,N
1500217635.8,286046940.8,N
1500217655.7,286046963.0,N
1500217675.5,286046964.7,N
1500217695.3,286046961.7,N
1500217715.2,286046970.4,N
1500217735.9,286046972.9,N
1500217755.7,286046979.4,N
1500217775.6,286046981.1,N
1500217795.4,286046979.8,N
1500217815.2,286046983.0,N
1500217835.1,286046976.2,N
1500217836.0,286046976.2,N
1500217855.8,286046975.6,N
1500217875.6,286046964.6,N
1500217895.5,286046961.3,N
1500217915.3,286046956.8,N
1500217935.1,286046956.4,N
1500217955.9,286046956.6,N
1500217975.7,286046962.7,N
1500217995.5,286046959.2,N
1500218015.4,286046952.3,N
1500218035.2,286046951.2,N
1500218055.0,286046951.6,N
1500218055.9,286046951.6,N
1500218075.8,286046946.2,N
1500218095.6,286046943.8,N
1500218115.4,286046950.2,N
1500218135.2,286046954.4,N
1500218155.1,286046959.1,N
1500218156.0,286046959.1,N
1500218175.8,286046958.3,N
1500218195.6,286046959.9,N
1500218215.5,286046957.7,N
1500218235.3,286046955.6,N
1500218255.1,286046957.5,N
1500218275.9,286046956.9,N
1500218295.7,286046955.7,N
1500218315.5,286046951.1,N
1500218335.4,286046942.5,N
1500218355.2,286046942.2,N
1500218375.0,286046943.1,N
1500218375.9,286046943.1,N
1500218395.8,286046943.3,N
1500218415.6,286046942.8,N
1500218435.4,286046945.1,N
1500218455.3,286046942.5,N
1500218475.1,286046941.7,N
1500218476.0,286046941.7,N
1500218495.8,286046941.8,N
1500218515.7,286046952.6,N
1500218535.5,286046955.3,N
1500218555.3,286046955.8,N
1500218575.2,286046946.9,N
1500218595.9,286046946.6,N
1500218615.7,286046947.4,N
1500218635.6,286046959.4,N
1500218655.4,286046956.0,N
1500218675.2,286046956.0,N
1500218695.0,286046958.4,N
1500218695.9,286046958.4,N
1500218715.8,286046960.6,N
1500218735.6,286046958.9,N
1500218755.4,286046955.3,N
1500218775.3,286046959.0,N
1500218795.1,286046953.3,N
1500218815.8,286046957.1,N
1500218835.7,286046962.8,N
1500218855.5,286046961.6,N
1500218875.3,286046958.3,N
1500218895.2,286046959.5,N
1500218915.9,286046955.1,N
1500218935.7,286046953.5,N
1500218955.6,286046954.1,N
1500218975.4,286046952.5,N
1500218995.2,286046949.9,N
1500219015.1,286046944.9,N
1500219016.0,286046944.9,N
1500219035.8,286046941.1,N
1500219055.6,286046939.2,N
1500219075.4,286046941.1,N
1500219095.3,286046942.8,N
1500219115.1,286046942.7,N
1500219135.8,286046954.3,N
1500219155.7,286046960.7,N
1500219175.5,286046974.7,N
1500219195.3,286046983.5,N
1500219215.2,286046983.8,N
1500219235.0,286046982.2,N
1500219235.9,286046982.2,N
1500219255.7,286046984.6,N
1500219275.6,286046986.3,N
1500219295.4,286046975.7,N
1500219315.2,286046977.1,N
1500219335.1,286046983.3,N
1500219336.0,286046983.3,N
1500219355.8,286046981.7,N
1500219375.6,286046981.3,N
1500219395.5,286046993.5,N
1500219415.3,286046991.2,N
1500219435.1,286046985.6,N
1500219455.9,286046994.4,N
1500219475.7,286046987.8,N
1500219495.5,286046980.6,N
1500219515.4,286046977.9,N
1500219535.2,286046978.6,N
1500219555.0,286046984.0,N
1500219555.9,286046984.0,N
1500219575.7,286046992.9,N
1500219595.6,286046998.7,N
1500219615.4,286046998.1,N
1500219635.2,286046995.0,N
1500219655.1,286046995.0,N
1500219656.0,286046995.0,N
1500219675.8,286046991.0,N
1500219695.6,286046990.2,N
1500219715.5,286046994.5,N
1500219735.3,286046994.0,N
1500219755.1,286046996.0,N
1500219775.9,286046988.8,N
1500219795.7,286046986.5,N
1500219815.5,286046981.6,N
1500219835.4,286046974.4,N
1500219855.2,286046973.1,N
1500219875.0,286046978.0,N
1500219875.9,286046978.0,N
1500219895.8,286046987.0,N
1500219915.6,286046994.2,N
1500219935.4,286046991.5,N
1500219955.3,286046986.0,N
1500219975.1,286046991.8,N
1500219976.0,286046991.8,N
1500219995.8,286046990.1,N
1500220015.7,286046993.6,N
1500220035.5,286046988.5,N
1500220055.3,286046996.2,N
1500220075.2,286047001.6,N
1500220095.9,286047001.5,N
1500220115.7,286046999.8,N
1500220135.6,286046994.5,N
1500220155.4,286046988.2,N
1500220175.2,286046990.9,N
1500220195.0,286046997.9,N
1500220196.0,286046997.9,N
1500220215.8,286046997.2,N
1500220235.6,286047000.6,N
1500220255.4,286047008.3,N
1500220275.3,286047012.3,N
1500220295.1,286047011.9,N
1500220315.8,286047003.2,N
1500220335.7,286046998.5,N
1500220355.5,286046999.8,N
1500220375.3,286046999.8,N
1500220395.2,286046999.5,N
1500220415.9,286046993.3,N
1500220435.7,286046994.8,N
1500220455.6,286046992.7,N
1500220475.4,286046991.5,N
1500220495.2,286047002.7,N
1500220515.1,286047001.3,N
1500220516.0,286047001.3,N
1500220535.8,286047000.9,N
1500220555.6,286046996.9,N
1500220575.4,286046998.3,N
1500220595.3,286046998.5,N
1500220615.1,286047001.7,N
1500220635.8,286047006.6,N
1500220655.7,286047017.2,N
1500220675.5,286047017.8,N
1500220695.3,286047021.1,N
1500220715.2,286047018.5,N
1500220735.9,286047032.8,N
1500220755.7,286047034.7,N
1500220775.6,286047034.7,N
1500220795.4,286047026.5,N
